| time (UTC) | temp C | wind direction | speed KPH | gust KPH | rain 1hr cm | rain 24hr cm | rain mn cm | humidity % | barometer mb |
| 20260506180218 | 13 | 56 | 8.0 | 19.3 | 0.00 | 0.00 | 0.00 | 63 | 1013.6 |
| 20260506175403 | 14 | 62 | 8.0 | 19.3 | 0.00 | 0.00 | 0.00 | 61 | 1013.5 |
| 20260506174503 | 14 | 54 | 6.4 | 14.5 | 0.00 | 0.00 | 0.00 | 62 | 1013.6 |
| 20260506173818 | 15 | 64 | 4.8 | 14.5 | 0.00 | 0.00 | 0.00 | 59 | 1013.6 |
| 20260506172703 | 15 | 37 | 4.8 | 12.9 | 0.00 | 0.00 | 0.00 | 54 | 1013.9 |
| 20260506170903 | 15 | 16 | 4.8 | 11.3 | 0.00 | 0.03 | 0.00 | 53 | 1013.8 |
| 20260506170003 | 15 | 27 | 3.2 | 6.4 | 0.00 | 0.03 | 0.00 | 54 | 1013.7 |
| 20260506165403 | 14 | 36 | 3.2 | 4.8 | 0.00 | 0.05 | 0.00 | 54 | 1013.9 |
| 20260506164503 | 13 | 42 | 3.2 | 6.4 | 0.00 | 0.05 | 0.00 | 58 | 1013.9 |
| 20260506163603 | 14 | 44 | 3.2 | 4.8 | 0.00 | 0.05 | 0.00 | 56 | 1013.8 |
| 20260506162018 | 14 | 32 | 4.8 | 9.7 | 0.00 | 0.05 | 0.00 | 54 | 1013.8 |
| 20260506160903 | 14 | 39 | 3.2 | 9.7 | 0.00 | 0.05 | 0.00 | 53 | 1013.8 |
| 20260506160217 | 14 | 31 | 4.8 | 9.7 | 0.00 | 0.05 | 0.00 | 48 | 1013.9 |
| 20260506155617 | 14 | 34 | 3.2 | 6.4 | 0.00 | 0.05 | 0.00 | 48 | 1013.9 |
| 20260506154503 | 14 | 45 | 3.2 | 9.7 | 0.00 | 0.08 | 0.00 | 49 | 1014.0 |
| 20260506150903 | 16 | 315 | 4.8 | 11.3 | 0.00 | 0.30 | 0.00 | 48 | 1014.2 |
| 20260506150219 | 15 | 343 | 3.2 | 11.3 | 0.00 | 0.30 | 0.00 | 48 | 1014.2 |
| 20260506145403 | 16 | 310 | 1.6 | 4.8 | 0.00 | 0.30 | 0.00 | 47 | 1014.4 |
| 20260506144503 | 15 | 222 | 4.8 | 11.3 | 0.00 | 0.30 | 0.00 | 46 | 1014.4 |
| 20260506143603 | 15 | 33 | 1.6 | 6.4 | 0.00 | 0.30 | 0.00 | 49 | 1014.7 |
| 20260506142703 | 13 | 37 | 1.6 | 4.8 | 0.00 | 0.30 | 0.00 | 54 | 1014.6 |
| 20260506141803 | 13 | 26 | 4.8 | 12.9 | 0.00 | 0.30 | 0.00 | 56 | 1014.7 |
| 20260506140903 | 14 | 25 | 4.8 | 12.9 | 0.00 | 0.30 | 0.00 | 54 | 1014.8 |
| 20260506140003 | 16 | 308 | 4.8 | 12.9 | 0.00 | 0.30 | 0.00 | 53 | 1014.9 |
| 20260506135403 | 15 | 230 | 4.8 | 11.3 | 0.00 | 0.30 | 0.00 | 53 | 1014.8 |
| 20260506134503 | 15 | 210 | 4.8 | 9.7 | 0.00 | 0.30 | 0.00 | 52 | 1015.1 |
| 20260506131804 | 15 | 305 | 3.2 | 9.7 | 0.00 | 0.30 | 0.00 | 50 | 1015.3 |
| 20260506130903 | 15 | 328 | 4.8 | 9.7 | 0.00 | 0.30 | 0.00 | 54 | 1015.4 |
| 20260506130004 | 15 | 306 | 3.2 | 9.7 | 0.00 | 0.30 | 0.00 | 53 | 1015.2 |
| 20260506125403 | 15 | 268 | 3.2 | 11.3 | 0.00 | 0.30 | 0.00 | 56 | 1015.2 |
| 20260506123603 | 14 | 257 | 3.2 | 9.7 | 0.00 | 0.30 | 0.00 | 56 | 1015.2 |
| 20260506122917 | 13 | 284 | 4.8 | 11.3 | 0.00 | 0.30 | 0.00 | 55 | 1015.5 |
| 20260506121803 | 13 | 233 | 3.2 | 9.7 | 0.00 | 0.30 | 0.00 | 61 | 1015.4 |
| 20260506120903 | 12 | 251 | 4.8 | 9.7 | 0.00 | 0.30 | 0.00 | 63 | 1015.5 |
| 20260506120004 | 12 | 12 | 3.2 | 11.3 | 0.00 | 0.30 | 0.00 | 61 | 1015.6 |
| 20260506114503 | 14 | 260 | 4.8 | 12.9 | 0.00 | 0.30 | 0.00 | 59 | 1015.8 |
| 20260506113603 | 13 | 6 | 4.8 | 9.7 | 0.00 | 0.30 | 0.00 | 60 | 1015.7 |
| 20260506112917 | 12 | 48 | 3.2 | 6.4 | 0.00 | 0.30 | 0.00 | 59 | 1015.8 |
| 20260506111803 | 12 | 192 | 3.2 | 11.3 | 0.00 | 0.30 | 0.00 | 62 | 1015.9 |
| 20260506110003 | 11 | 301 | 3.2 | 9.7 | 0.00 | 0.30 | 0.00 | 65 | 1015.9 |
| 20260506105403 | 12 | 2 | 3.2 | 9.7 | 0.00 | 0.30 | 0.00 | 63 | 1015.9 |
| 20260506104503 | 12 | 8 | 3.2 | 9.7 | 0.00 | 0.30 | 0.00 | 64 | 1016.0 |
| 20260506103817 | 12 | 308 | 3.2 | 11.3 | 0.00 | 0.30 | 0.00 | 65 | 1015.8 |
| 20260506102919 | 12 | 216 | 3.2 | 9.7 | 0.00 | 0.30 | 0.00 | 68 | 1015.7 |
| 20260506100003 | 11 | 199 | 1.6 | 4.8 | 0.00 | 0.30 | 0.00 | 67 | 1016.2 |
| 20260506095403 | 11 | 162 | 1.6 | 4.8 | 0.00 | 0.30 | 0.00 | 70 | 1016.2 |
| 20260506094503 | 10 | 343 | 1.6 | 6.4 | 0.00 | 0.30 | 0.00 | 70 | 1016.2 |
| 20260506093603 | 10 | 314 | 3.2 | 6.4 | 0.00 | 0.30 | 0.00 | 73 | 1016.1 |
| 20260506092703 | 10 | 310 | 4.8 | 12.9 | 0.00 | 0.30 | 0.00 | 74 | 1016.1 |
| 20260506091803 | 12 | 242 | 1.6 | 9.7 | 0.00 | 0.30 | 0.00 | 73 | 1015.8 |
| 20260506090903 | 11 | 205 | 3.2 | 6.4 | 0.00 | 0.30 | 0.00 | 74 | 1016.0 |
| 20260506090003 | 10 | 241 | 3.2 | 11.3 | 0.00 | 0.30 | 0.00 | 78 | 1015.9 |
| 20260506085403 | 9 | 247 | 4.8 | 11.3 | 0.00 | 0.30 | 0.00 | 78 | 1016.1 |
| 20260506084504 | 10 | 263 | 3.2 | 6.4 | 0.00 | 0.30 | 0.00 | 76 | 1015.9 |
| 20260506083603 | 10 | 206 | 1.6 | 6.4 | 0.00 | 0.30 | 0.00 | 77 | 1015.9 |
| 20260506080903 | 9 | 172 | 0.0 | 3.2 | 0.00 | 0.30 | 0.00 | 83 | 1015.9 |
| 20260506071803 | 7 | 51 | 0.0 | 1.6 | 0.00 | 0.30 | 0.00 | 91 | 1015.8 |
| 20260506070903 | 7 | 119 | 0.0 | 1.6 | 0.00 | 0.30 | 0.00 | 92 | 1015.8 |
| 20260506061803 | 5 | 59 | 0.0 | 3.2 | 0.00 | 0.30 | 0.00 | 99 | 1015.7 |
| 20260506060903 | 4 | 43 | 1.6 | 4.8 | 0.00 | 0.30 | 0.00 | 99 | 1015.7 |
| 20260506050903 | 3 | 55 | 1.6 | 3.2 | 0.00 | 0.30 | 0.00 | 99 | 1015.3 |
| 20260506044503 | 3 | 62 | 1.6 | 3.2 | 0.00 | 0.30 | 0.00 | 99 | 1015.3 |
| 20260506043603 | 3 | 50 | 1.6 | 3.2 | 0.00 | 0.30 | 0.00 | 99 | 1015.3 |
| 20260506041803 | 3 | 58 | 1.6 | 3.2 | 0.00 | 0.30 | 0.00 | 99 | 1015.5 |
| 20260506040903 | 3 | 51 | 1.6 | 3.2 | 0.00 | 0.30 | 0.00 | 99 | 1015.6 |
| 20260506040003 | 3 | 55 | 1.6 | 3.2 | 0.00 | 0.30 | 0.00 | 99 | 1015.6 |
| 20260506035403 | 3 | 64 | 0.0 | 1.6 | 0.00 | 0.30 | 0.00 | 99 | 1015.8 |
| 20260506034503 | 3 | 0 | 0.0 | 0.0 | 0.00 | 0.30 | 0.00 | 99 | 1015.9 |
| 20260506031803 | 3 | 56 | 0.0 | 1.6 | 0.00 | 0.30 | 0.00 | 99 | 1015.7 |
| 20260506030903 | 3 | 50 | 1.6 | 3.2 | 0.00 | 0.30 | 0.00 | 99 | 1015.6 |
| 20260506030003 | 2 | 58 | 0.0 | 1.6 | 0.00 | 0.30 | 0.00 | 99 | 1015.6 |
| 20260506025403 | 2 | 53 | 0.0 | 1.6 | 0.00 | 0.30 | 0.00 | 99 | 1015.8 |
| 20260506024503 | 2 | 55 | 1.6 | 1.6 | 0.00 | 0.30 | 0.00 | 99 | 1015.7 |
| 20260506020903 | 2 | 0 | 0.0 | 0.0 | 0.00 | 0.30 | 0.00 | 99 | 1015.8 |
| 20260506020217 | 2 | 75 | 0.0 | 1.6 | 0.00 | 0.30 | 0.00 | 99 | 1015.6 |
| 20260506015404 | 2 | 62 | 0.0 | 1.6 | 0.00 | 0.30 | 0.00 | 99 | 1015.6 |
| 20260506014717 | 2 | 0 | 0.0 | 0.0 | 0.00 | 0.30 | 0.00 | 99 | 1015.7 |
| 20260506013603 | 2 | 0 | 0.0 | 0.0 | 0.00 | 0.30 | 0.00 | 99 | 1015.6 |
| 20260506011803 | 2 | 48 | 3.2 | 4.8 | 0.00 | 0.30 | 0.00 | 99 | 1015.6 |
| 20260506011117 | 3 | 51 | 1.6 | 3.2 | 0.00 | 0.30 | 0.00 | 99 | 1015.7 |
| 20260506010003 | 3 | 59 | 1.6 | 3.2 | 0.00 | 0.30 | 0.00 | 99 | 1015.8 |
| 20260506005403 | 3 | 56 | 1.6 | 3.2 | 0.00 | 0.30 | 0.00 | 99 | 1015.9 |
| 20260506004717 | 2 | 60 | 0.0 | 1.6 | 0.00 | 0.30 | 0.00 | 99 | 1015.7 |
| 20260506002703 | 3 | 52 | 0.0 | 1.6 | 0.00 | 0.30 | 0.00 | 99 | 1016.0 |
| 20260506001803 | 3 | 65 | 0.0 | 1.6 | 0.00 | 0.30 | 0.00 | 99 | 1015.8 |
| 20260506000903 | 3 | 60 | 0.0 | 1.6 | 0.00 | 0.30 | 0.00 | 99 | 1015.9 |
| 20260506000003 | 3 | 49 | 1.6 | 3.2 | 0.00 | 0.30 | 0.00 | 99 | 1016.0 |
| 20260505235617 | 3 | 52 | 0.0 | 3.2 | 0.00 | 0.30 | 0.00 | 99 | 1016.1 |
| 20260505233818 | 4 | 37 | 1.6 | 4.8 | 0.00 | 0.30 | 0.00 | 99 | 1016.1 |
| 20260505232703 | 4 | 90 | 0.0 | 1.6 | 0.00 | 0.30 | 0.00 | 99 | 1016.1 |
| 20260505231803 | 4 | 0 | 0.0 | 0.0 | 0.00 | 0.30 | 0.00 | 99 | 1015.9 |
| 20260505230903 | 5 | 58 | 0.0 | 1.6 | 0.00 | 0.30 | 0.00 | 99 | 1016.0 |
| 20260505230003 | 5 | 48 | 1.6 | 3.2 | 0.00 | 0.30 | 0.00 | 99 | 1015.8 |
| 20260505224717 | 5 | 0 | 0.0 | 0.0 | 0.00 | 0.30 | 0.00 | 99 | 1016.1 |
| 20260505223817 | 5 | 61 | 0.0 | 1.6 | 0.00 | 0.30 | 0.00 | 99 | 1016.3 |
| 20260505222918 | 5 | 0 | 0.0 | 0.0 | 0.00 | 0.30 | 0.00 | 98 | 1016.2 |
| 20260505221803 | 5 | 0 | 0.0 | 0.0 | 0.00 | 0.30 | 0.00 | 98 | 1016.3 |
| 20260505220903 | 5 | 0 | 0.0 | 0.0 | 0.00 | 0.30 | 0.00 | 98 | 1016.1 |
| 20260505214503 | 6 | 57 | 1.6 | 3.2 | 0.00 | 0.30 | 0.30 | 97 | 1016.3 |
| 20260505213603 | 6 | 56 | 1.6 | 4.8 | 0.00 | 0.30 | 0.30 | 98 | 1016.4 |
| 20260505212918 | 6 | 55 | 1.6 | 4.8 | 0.00 | 0.30 | 0.30 | 98 | 1016.4 |
| 20260505211803 | 5 | 45 | 0.0 | 3.2 | 0.00 | 0.30 | 0.30 | 98 | 1016.6 |
| 20260505210903 | 5 | 0 | 0.0 | 0.0 | 0.00 | 0.30 | 0.30 | 98 | 1016.5 |
| 20260505210003 | 6 | 0 | 0.0 | 0.0 | 0.00 | 0.30 | 0.30 | 98 | 1016.6 |
| 20260505205403 | 6 | 75 | 0.0 | 1.6 | 0.00 | 0.30 | 0.30 | 98 | 1016.5 |
| 20260505204717 | 6 | 54 | 0.0 | 3.2 | 0.00 | 0.30 | 0.30 | 97 | 1016.2 |
| 20260505203603 | 6 | 61 | 0.0 | 3.2 | 0.00 | 0.30 | 0.30 | 97 | 1016.1 |
| 20260505202703 | 6 | 65 | 0.0 | 1.6 | 0.00 | 0.30 | 0.30 | 96 | 1016.2 |
| 20260505200903 | 6 | 46 | 1.6 | 3.2 | 0.00 | 0.30 | 0.30 | 96 | 1016.3 |
| 20260505200217 | 6 | 45 | 1.6 | 1.6 | 0.00 | 0.30 | 0.30 | 96 | 1016.2 |
| 20260505195403 | 6 | 42 | 1.6 | 3.2 | 0.00 | 0.30 | 0.30 | 95 | 1015.9 |
| 20260505194503 | 6 | 33 | 1.6 | 3.2 | 0.00 | 0.30 | 0.30 | 95 | 1015.8 |
| 20260505193603 | 7 | 32 | 1.6 | 3.2 | 0.00 | 0.36 | 0.30 | 94 | 1015.7 |
| 20260505191803 | 7 | 41 | 1.6 | 3.2 | 0.00 | 0.51 | 0.30 | 91 | 1015.5 |
| 20260505190903 | 8 | 42 | 0.0 | 1.6 | 0.00 | 0.51 | 0.30 | 89 | 1015.3 |
| 20260505190003 | 8 | 65 | 0.0 | 1.6 | 0.00 | 0.51 | 0.30 | 86 | 1015.5 |
| 20260505185403 | 8 | 60 | 0.0 | 3.2 | 0.00 | 0.51 | 0.30 | 85 | 1015.5 |
| 20260505184718 | 8 | 57 | 1.6 | 1.6 | 0.00 | 0.51 | 0.30 | 84 | 1015.3 |
| 20260505183603 | 8 | 78 | 0.0 | 3.2 | 0.00 | 0.51 | 0.30 | 84 | 1015.3 |
| 20260505182703 | 8 | 93 | 0.0 | 3.2 | 0.00 | 0.51 | 0.30 | 84 | 1015.0 |
| 20260505181803 | 8 | 78 | 0.0 | 3.2 | 0.03 | 0.51 | 0.30 | 85 | 1015.2 |